HS-Minster Classic XC Invitational 2025

Minster, OH
Hosted by Minster

Results

High School Girls - 5K Run
PlaceAthleteGradeSchoolTime
1Claire Bohman11Minster20:02.6
2Emily Heth9Crestview HS20:35.8
3Maria Niekamp12Minster20:44.1
4Ava Rismiller11Versailles20:45.6
5Blair Schellhase9Versailles20:56.7
6Annie Hemmelgarn12Minster21:02.6
7Amelia Bergaman9Minster21:41.1
8Catelyn Cearleaf9Minster21:41.5
9Corynn Goubeaux11Versailles21:46.9
10Lillian Selhorst10Versailles21:50.1
11Isabelle Dirksen11Versailles21:52.9
12Melanie Kranenburg11Anna22:03.8
13Sheridan Williamson10Anna22:11.6
14Riley Hagens12Minster22:16.7
15Ariyah Pfenning12New Knoxville22:29.5
16Kacey Borchers9Versailles22:34.1
17Ava Colter10Minster22:40.6
18Anna Gardner12Crestview HS23:05.2
19Lexi Timmerman10Versailles23:10.2
20Claire Simon10Versailles23:24.9
21Addison Wentz9Anna23:25.9
22Josephine Hoying11Minster23:27.5
23Olivia Broeker11Anna23:48.8
24Naomi Swallow10Versailles23:54.3
25Rhylan Broerman11Versailles23:57.3
26Ellie Grieshop12Minster24:00.6
27Eden Barga12Versailles24:06.6
28Cara Bornhorst9Minster24:08.7
29Chloe Steinbrunner12Versailles24:12.7
30Mackenzie Harting11Crestview HS24:20.7
31Elyana Thiebeau9Minster24:27.9
32Abby Wilker9Versailles24:32.9
33Lani Edwards9Anna24:35.4
34Mary Topp9Minster25:01.0
35Alexis Kunk10Versailles25:07.1
36Therese Schulze9Minster25:13.8
37Taylor Gibbons10Versailles25:21.1
38Kayal Magoto11Versailles25:30.2
39Emily Bambauer11New Knoxville26:18.1
40Madison Alexander10Versailles27:10.7
41Phebe Vergara9New Knoxville27:49.1
42Alison Borchers9Versailles27:59.5
43Greta Broering11Versailles28:04.1
44Grace Borchers12Versailles28:04.4
45Ava Motycka11Crestview HS28:14.6
46Molly Brame11Minster28:32.3
47Marlee Temple10Crestview HS29:24.2
48Magdalene Monnin9Anna29:47.8
49Symone Wehrkamp9Versailles30:39.0
50Kenslee VanHorn12Anna31:13.9
51Mckenzie Simcoe-Housel10Anna31:46.8
52Chloe Miller11Crestview HS33:41.9
53Josie Jones9New Knoxville33:58.3
54Emiley Paseka10Crestview HS39:13.9
High School Boys - 5K Run
PlaceAthleteGradeSchoolTime
1Jackson Spitzer11Versailles15:19.2
2Tony Moorman12Versailles16:02.4
3Derek Young10Crestview HS16:37.7
4Zachary Rahm12Versailles16:50.3
5Lincoln Smith12Crestview HS16:54.3
6Kale Vining11Crestview HS16:57.2
7Titus Young11Anna16:59.4
8Collin Cedarleaf11Minster17:18.7
9Tony Spitzer11Versailles17:21.8
10Adrian Walker8Coldwater MS17:24.7
11Max McKibben10Versailles17:39.2
12Blake Bixler12Anna17:43.0
13Drew Meyer12Versailles17:45.3
14Andrew Heth11Crestview HS17:54.3
15Caleb Thomas11Crestview HS18:13.4
16Jack DeMange10Versailles18:15.5
17Jack Strasbaugh10Minster18:19.3
18Hudson Perrott11Crestview HS18:20.4
19Derek Meyer10Anna18:21.2
20William Lammers10New Knoxville18:38.6
21Weslee Fogt12Anna18:44.4
22Austin Bohman9Minster18:47.2
23Jake Heth12Crestview HS18:48.9
24Leo Gehret10Versailles18:52.8
25Tyler Maurer12Anna18:53.2
26Brady Rogers11Versailles18:58.2
27Ben Pitsenbarger11Versailles19:09.0
28Noah Obringer11Coldwater19:09.5
29Luke DeMange11Versailles19:15.9
30Parker Kerrigan11Minster19:18.1
31Blake Pitsenbrager9Versailles19:23.7
32Evan Homan11Minster19:26.8
33Drayden Hoffman11Crestview HS19:28.3
34Adam Rauh11Versailles19:28.5
35Parker Bruns9Minster19:34.0
36Cole Dulaney12Anna19:35.0
37Ty Koenig10New Knoxville19:42.2
38Blaize Brandewie9Versailles19:52.0
39Ethan Subler10Versailles19:52.6
40Robert Tyas11Crestview HS19:56.8
41Owen Poeppelman12Anna20:01.5
42Brentley Van Skyock10New Knoxville20:02.2
43Zach Powell9Coldwater20:06.7
44Briggs Hileman9Coldwater20:19.8
45Keegan Yagle12Versailles20:21.0
46Levi Hoblet10Crestview HS20:24.9
47Eli Huwer12Minster20:30.1
48Parker Schlater10Versailles20:31.0
49Zachary Mangen12Versailles20:33.7
50Isaac Homan10Minster20:34.7
51Jay Liette11Coldwater20:35.9
52Zachary Ward12Versailles20:43.4
53Patrick McGlinch11Versailles20:58.9
54Dalton Ruhenkamp10Versailles21:02.5
55Noah Miller10New Knoxville21:02.7
56Luke Bornhorst11Minster21:02.8
57D.J. Bensman12Minster21:21.8
58Collin Bergstrom10Coldwater21:23.4
59Quentin Smart11Crestview HS21:38.8
60Alex Oen9Minster21:55.2
61Eli Stammen11Minster22:00.7
62Griffin Pettus9Anna22:19.1
63Creighton Williams11Coldwater22:25.3
64Joey Buschur11Coldwater22:35.0
65Jude Holland11New Knoxville22:41.5
66Cole Miller11Crestview HS22:45.9
67Aiden Burtch12Coldwater22:49.5
68Liam Barga10Versailles22:54.3
69Gabe Bensman9Minster23:02.6
70Marcus Stammen10Coldwater23:05.2
71Liam Lammers12New Knoxville23:12.0
72Carson Schwartz10Versailles23:19.2
73Evan Knueve9Crestview HS23:33.3
74Kolton Gehm12Coldwater24:16.5
75James Valentine12Anna24:29.0
76Kaiden Moorman9Coldwater24:46.5
77Liam Cowan10Coldwater24:53.2
78Hunter Waltmire9Crestview HS25:56.6
79Ben Hannewald11Coldwater26:42.4